Year,Month,Day,Hour,Minute,Value (Times are PST for barometer in hPa)
2020,07,25,00,00,1008.03
2020,07,25,00,01,1008.03
2020,07,25,00,02,1008.03
2020,07,25,00,03,1008.03
2020,07,25,00,04,1010.45
2020,07,25,00,05,1012.43
2020,07,25,00,06,1012.43
2020,07,25,00,07,1012.43
2020,07,25,00,08,1012.43
2020,07,25,00,09,1011.32
2020,07,25,00,10,1010.33
2020,07,25,00,11,1010.33
2020,07,25,00,12,1010.33
2020,07,25,00,13,1010.33
2020,07,25,00,14,1010.33
2020,07,25,00,15,1010.33
2020,07,25,00,16,1007.33
2020,07,25,00,17,1004.88
2020,07,25,00,18,1004.88
2020,07,25,00,19,1004.88
2020,07,25,00,20,1004.88
2020,07,25,00,21,1004.88
2020,07,25,00,22,1004.88
2020,07,25,00,23,1004.88
2020,07,25,00,24,1004.67
2020,07,25,00,25,1004.50
2020,07,25,00,26,1004.50
2020,07,25,00,27,1004.50
2020,07,25,00,28,1004.50
2020,07,25,00,29,1004.50
2020,07,25,00,30,1004.50
2020,07,25,00,31,1004.50
2020,07,25,00,32,1004.50
2020,07,25,00,33,1004.50
2020,07,25,00,34,1004.50
2020,07,25,00,35,1004.50
2020,07,25,00,36,1004.50
2020,07,25,00,37,1004.50
2020,07,25,00,38,1004.50
2020,07,25,00,39,1004.50
2020,07,25,00,40,1004.50
2020,07,25,00,41,1004.50
2020,07,25,00,42,1004.50
2020,07,25,00,43,1008.62
2020,07,25,00,44,1011.99
2020,07,25,00,45,1011.99
2020,07,25,00,46,1011.99
2020,07,25,00,47,1011.99
2020,07,25,00,48,1012.33
2020,07,25,00,49,1012.63
2020,07,25,00,50,1015.52
2020,07,25,00,51,1017.88
2020,07,25,00,52,1017.88
2020,07,25,00,53,1017.88
2020,07,25,00,54,1017.88
2020,07,25,00,55,1017.88
2020,07,25,00,56,1017.88
2020,07,25,00,57,1017.88
2020,07,25,00,58,1017.88
2020,07,25,00,59,1018.35
2020,07,25,01,00,1018.73
2020,07,25,01,01,1018.73
2020,07,25,01,02,1018.73
2020,07,25,01,03,1018.73
2020,07,25,01,04,1018.61
2020,07,25,01,05,1018.28
2020,07,25,01,06,1018.08
2020,07,25,01,07,1016.44
2020,07,25,01,08,1015.21
2020,07,25,01,09,1016.40
2020,07,25,01,10,1017.27
2020,07,25,01,11,1017.27
2020,07,25,01,12,1017.27
2020,07,25,01,13,1017.27
2020,07,25,01,14,1017.27
2020,07,25,01,15,1017.27
2020,07,25,01,16,1017.27
2020,07,25,01,17,1017.27
2020,07,25,01,18,1012.78
2020,07,25,01,19,1008.74
2020,07,25,01,20,1008.74
2020,07,25,01,21,1008.74
2020,07,25,01,22,1008.74
2020,07,25,01,23,1008.74
2020,07,25,01,24,1008.74
2020,07,25,01,25,1007.52
2020,07,25,01,26,1006.30
2020,07,25,01,27,1006.30
2020,07,25,01,28,1006.30
2020,07,25,01,29,1006.30
2020,07,25,01,30,1006.30
2020,07,25,01,31,1006.30
2020,07,25,01,32,1006.30
2020,07,25,01,33,1006.30
2020,07,25,01,34,1006.30
2020,07,25,01,35,1010.45
2020,07,25,01,36,1013.85
2020,07,25,01,37,1013.85
2020,07,25,01,38,1013.85
2020,07,25,01,39,1013.85
2020,07,25,01,40,1013.85
2020,07,25,01,41,1014.04
2020,07,25,01,42,1014.19
2020,07,25,01,43,1014.19
2020,07,25,01,44,1014.19
2020,07,25,01,45,1011.83
2020,07,25,01,46,1009.89
2020,07,25,01,47,1009.09
2020,07,25,01,48,1008.50
2020,07,25,01,49,1008.50
2020,07,25,01,50,1008.50
2020,07,25,01,51,1008.50
2020,07,25,01,52,1010.84
2020,07,25,01,53,1013.15
2020,07,25,01,54,1013.14
2020,07,25,01,55,1011.00
2020,07,25,01,56,1009.08
2020,07,25,01,57,1010.38
2020,07,25,01,58,1011.68
2020,07,25,01,59,1009.45
2020,07,25,02,00,1007.62
2020,07,25,02,01,1007.62
2020,07,25,02,02,1008.20
2020,07,25,02,03,1008.86
2020,07,25,02,04,1009.27
2020,07,25,02,05,1009.48
2020,07,25,02,06,1009.11
2020,07,25,02,07,1008.81
2020,07,25,02,08,1008.81
2020,07,25,02,09,1008.81
2020,07,25,02,10,1011.54
2020,07,25,02,11,1013.78
2020,07,25,02,12,1013.78
2020,07,25,02,13,1013.78
2020,07,25,02,14,1013.47
2020,07,25,02,15,1013.21
2020,07,25,02,16,1013.21
2020,07,25,02,17,1013.21
2020,07,25,02,18,1013.21
2020,07,25,02,19,1013.21
2020,07,25,02,20,1013.21
2020,07,25,02,21,1013.21
2020,07,25,02,22,1014.77
2020,07,25,02,23,1016.05
2020,07,25,02,24,1016.03
2020,07,25,02,25,1016.02
2020,07,25,02,26,1016.02
2020,07,25,02,27,1016.02
2020,07,25,02,28,1016.02
2020,07,25,02,29,1016.02
2020,07,25,02,30,1016.02
2020,07,25,02,31,1017.00
2020,07,25,02,32,1017.88
2020,07,25,02,33,1017.88
2020,07,25,02,34,1017.88
2020,07,25,02,35,1017.32
2020,07,25,02,36,1016.87
2020,07,25,02,37,1018.06
2020,07,25,02,38,1019.03
2020,07,25,02,39,1017.95
2020,07,25,02,40,1017.09
2020,07,25,02,41,1017.10
2020,07,25,02,42,1017.10
2020,07,25,02,43,1017.10
2020,07,25,02,44,1018.10
2020,07,25,02,45,1019.00
2020,07,25,02,46,1015.87
2020,07,25,02,47,1013.31
2020,07,25,02,48,1013.31
2020,07,25,02,49,1010.14
2020,07,25,02,50,1007.55
2020,07,25,02,51,1007.55
2020,07,25,02,52,1007.55
2020,07,25,02,53,1007.55
2020,07,25,02,54,1007.55
2020,07,25,02,55,1007.55
2020,07,25,02,56,1007.55
2020,07,25,02,57,1007.55
2020,07,25,02,58,1007.55
2020,07,25,02,59,1007.55
2020,07,25,03,00,1007.55
2020,07,25,03,01,1007.55
2020,07,25,03,02,1007.55
2020,07,25,03,03,1007.55
2020,07,25,03,06,1007.55
2020,07,25,03,07,1007.55
2020,07,25,03,08,1007.55
2020,07,25,03,09,1007.55
2020,07,25,03,10,1010.22
2020,07,25,03,11,1011.45
2020,07,25,03,12,1011.45
2020,07,25,03,13,1013.32
2020,07,25,03,14,1014.00
2020,07,25,03,15,1013.63
2020,07,25,03,16,1013.56
2020,07,25,03,17,1013.58
2020,07,25,03,18,1014.95
2020,07,25,03,19,1015.44
2020,07,25,03,20,1015.44
2020,07,25,03,21,1015.44
2020,07,25,03,22,1015.44
2020,07,25,03,23,1015.44
2020,07,25,03,24,1016.41
2020,07,25,03,25,1016.83
2020,07,25,03,26,1016.83
2020,07,25,03,27,1016.86
2020,07,25,03,28,1016.87
2020,07,25,03,29,1018.58
2020,07,25,03,30,1019.39
2020,07,25,03,31,1019.40
2020,07,25,03,32,1019.40
2020,07,25,03,33,1019.38
2020,07,25,03,34,1019.39
2020,07,25,03,35,1019.38
2020,07,25,03,36,1019.37
2020,07,25,03,37,1019.42
2020,07,25,03,38,1019.44
2020,07,25,03,39,1019.44
2020,07,25,03,40,1019.44
2020,07,25,03,41,1019.44
2020,07,25,03,42,1019.41
2020,07,25,03,43,1019.40
2020,07,25,03,44,1019.43
2020,07,25,03,45,1019.44
2020,07,25,03,46,1019.46
2020,07,25,03,47,1019.47
2020,07,25,03,48,1019.47
2020,07,25,03,49,1019.47
2020,07,25,03,50,1019.50
2020,07,25,03,51,1019.51
2020,07,25,03,52,1019.55
2020,07,25,03,53,1019.55
2020,07,25,03,54,1019.52
2020,07,25,03,55,1019.55
2020,07,25,03,56,1019.57
2020,07,25,03,57,1019.57
2020,07,25,03,58,1019.57
2020,07,25,03,59,1019.60
2020,07,25,04,00,1019.58
2020,07,25,04,01,1019.57
2020,07,25,04,02,1019.60
2020,07,25,04,03,1019.58
2020,07,25,04,04,1019.60
2020,07,25,04,05,1019.58
2020,07,25,04,06,1019.60
2020,07,25,04,07,1019.61
2020,07,25,04,08,1019.58
2020,07,25,04,09,1019.57
2020,07,25,04,10,1019.57
2020,07,25,04,11,1019.57
2020,07,25,04,12,1017.60
2020,07,25,04,13,1016.76
2020,07,25,04,14,1016.76
2020,07,25,04,15,1016.76
2020,07,25,04,16,1015.74
2020,07,25,04,17,1015.38
2020,07,25,04,18,1015.35
2020,07,25,04,19,1015.34
2020,07,25,04,20,1015.34
2020,07,25,04,21,1015.34
2020,07,25,04,22,1017.21
2020,07,25,04,23,1018.08
2020,07,25,04,24,1018.08
2020,07,25,04,25,1019.08
2020,07,25,04,26,1019.51
2020,07,25,04,27,1019.51
2020,07,25,04,28,1019.53
2020,07,25,04,29,1019.54
2020,07,25,04,30,1019.54
2020,07,25,04,31,1019.54
2020,07,25,04,32,1019.54
2020,07,25,04,33,1019.54
2020,07,25,04,34,1015.54
2020,07,25,04,35,1013.82
2020,07,25,04,36,1013.82
2020,07,25,04,37,1013.82
2020,07,25,04,38,1013.82
2020,07,25,04,39,1013.82
2020,07,25,04,40,1013.82
2020,07,25,04,41,1013.82
2020,07,25,04,42,1013.82
2020,07,25,04,43,1013.82
2020,07,25,04,44,1012.80
2020,07,25,04,45,1012.36
2020,07,25,04,46,1012.36
2020,07,25,04,47,1011.41
2020,07,25,04,48,1011.01
2020,07,25,04,49,1009.99
2020,07,25,04,50,1009.57
2020,07,25,04,51,1009.84
2020,07,25,04,52,1009.96
2020,07,25,04,53,1009.96
2020,07,25,04,54,1010.72
2020,07,25,04,55,1011.04
2020,07,25,04,56,1011.04
2020,07,25,04,57,1011.04
2020,07,25,04,58,1011.04
2020,07,25,04,59,1011.04
2020,07,25,05,00,1013.82
2020,07,25,05,01,1015.31
2020,07,25,05,02,1015.31
2020,07,25,05,03,1018.34
2020,07,25,05,04,1019.62
2020,07,25,05,05,1019.61
2020,07,25,05,06,1019.63
2020,07,25,05,07,1019.64
2020,07,25,05,08,1019.64
2020,07,25,05,09,1019.64
2020,07,25,05,10,1019.64
2020,07,25,05,11,1019.64
2020,07,25,05,12,1019.64
2020,07,25,05,13,1019.64
2020,07,25,05,14,1019.62
2020,07,25,05,15,1019.63
2020,07,25,05,16,1019.67
2020,07,25,05,17,1019.65
2020,07,25,05,18,1019.67
2020,07,25,05,19,1019.68
2020,07,25,05,20,1019.70
2020,07,25,05,21,1019.71
2020,07,25,05,22,1019.73
2020,07,25,05,23,1019.72
2020,07,25,05,24,1019.73
2020,07,25,05,25,1019.77
2020,07,25,05,26,1019.73
2020,07,25,05,27,1019.73
2020,07,25,05,28,1019.72
2020,07,25,05,29,1019.76
2020,07,25,05,30,1019.75
2020,07,25,05,31,1019.74
2020,07,25,05,32,1019.77
2020,07,25,05,33,1019.80
2020,07,25,05,34,1019.79
2020,07,25,05,35,1019.78
2020,07,25,05,36,1019.78
2020,07,25,05,37,1019.80
2020,07,25,05,38,1019.79
2020,07,25,05,39,1019.78
2020,07,25,05,40,1019.80
2020,07,25,05,41,1019.81
2020,07,25,05,42,1019.81
2020,07,25,05,43,1019.81
2020,07,25,05,44,1019.81
2020,07,25,05,45,1019.86
2020,07,25,05,46,1019.88
2020,07,25,05,47,1019.88
2020,07,25,05,48,1019.90
2020,07,25,05,49,1019.94
2020,07,25,05,50,1019.97
2020,07,25,05,51,1019.98
2020,07,25,05,52,1019.98
2020,07,25,05,53,1019.98
2020,07,25,05,54,1019.96
2020,07,25,05,55,1019.97
2020,07,25,05,56,1020.00
2020,07,25,05,57,1020.01
2020,07,25,05,58,1020.04
2020,07,25,05,59,1020.05
2020,07,25,06,00,1020.07
2020,07,25,06,01,1020.08
2020,07,25,06,02,1020.11
2020,07,25,06,03,1020.12
2020,07,25,06,04,1020.14
2020,07,25,06,05,1020.13
2020,07,25,06,06,1020.12
2020,07,25,06,07,1020.12
2020,07,25,06,08,1020.14
2020,07,25,06,09,1020.13
2020,07,25,06,10,1020.12
2020,07,25,06,11,1020.09
2020,07,25,06,12,1020.13
2020,07,25,06,13,1020.13
2020,07,25,06,14,1020.14
2020,07,25,06,15,1020.17
2020,07,25,06,16,1020.18
2020,07,25,06,17,1020.18
2020,07,25,06,18,1020.18
2020,07,25,06,19,1020.21
2020,07,25,06,20,1020.22
2020,07,25,06,21,1020.19
2020,07,25,06,22,1020.21
2020,07,25,06,23,1020.22
2020,07,25,06,24,1020.22
2020,07,25,06,25,1020.22
2020,07,25,06,26,1020.22
2020,07,25,06,27,1020.22
2020,07,25,06,28,1020.22
2020,07,25,06,29,1020.22
2020,07,25,06,30,1020.24
2020,07,25,06,31,1020.25
2020,07,25,06,32,1020.28
2020,07,25,06,33,1020.26
2020,07,25,06,34,1020.25
2020,07,25,06,35,1020.25
2020,07,25,06,36,1020.25
2020,07,25,06,37,1020.28
2020,07,25,06,38,1020.26
2020,07,25,06,39,1020.25
2020,07,25,06,40,1020.28
2020,07,25,06,41,1020.33
2020,07,25,06,42,1020.35
2020,07,25,06,43,1020.31
2020,07,25,06,44,1020.31
2020,07,25,06,45,1020.32
2020,07,25,06,46,1020.30
2020,07,25,06,47,1020.33
2020,07,25,06,48,1020.38
2020,07,25,06,49,1020.34
2020,07,25,06,50,1020.32
2020,07,25,06,51,1020.34
2020,07,25,06,52,1020.33
2020,07,25,06,53,1020.32
2020,07,25,06,54,1020.32
2020,07,25,06,55,1020.37
2020,07,25,06,56,1020.41
2020,07,25,06,57,1020.42
2020,07,25,06,58,1020.42
2020,07,25,06,59,1020.42
2020,07,25,07,00,1020.44
2020,07,25,07,01,1020.43
2020,07,25,07,02,1020.42
2020,07,25,07,03,1020.44
2020,07,25,07,04,1020.39
2020,07,25,07,05,1020.40
2020,07,25,07,06,1020.40
2020,07,25,07,07,1020.39
2020,07,25,07,08,1020.39
2020,07,25,07,09,1020.41
2020,07,25,07,10,1020.44
2020,07,25,07,11,1020.43
2020,07,25,07,12,1020.44
2020,07,25,07,13,1020.48
2020,07,25,07,14,1020.49
2020,07,25,07,15,1020.49
2020,07,25,07,16,1020.49
2020,07,25,07,17,1020.49
2020,07,25,07,18,1020.46
2020,07,25,07,19,1020.45
2020,07,25,07,20,1020.45
2020,07,25,07,21,1020.48
2020,07,25,07,22,1020.51
2020,07,25,07,23,1020.52
2020,07,25,07,24,1020.52
2020,07,25,07,25,1020.52
2020,07,25,07,26,1020.52
2020,07,25,07,27,1020.52
2020,07,25,07,28,1020.52
2020,07,25,07,29,1020.52
2020,07,25,07,30,1020.52
2020,07,25,07,31,1018.69
2020,07,25,07,32,1017.71
2020,07,25,07,33,1017.71
2020,07,25,07,34,1019.58
2020,07,25,07,35,1020.54
2020,07,25,07,36,1020.52
2020,07,25,07,37,1020.52
2020,07,25,07,38,1020.52
2020,07,25,07,39,1020.55
2020,07,25,07,40,1020.56
2020,07,25,07,41,1020.60
2020,07,25,07,42,1020.60
2020,07,25,07,43,1020.59
2020,07,25,07,44,1020.57
2020,07,25,07,45,1020.56
2020,07,25,07,46,1020.56
2020,07,25,07,47,1020.58
2020,07,25,07,48,1020.59
2020,07,25,07,49,1020.54
2020,07,25,07,50,1020.57
2020,07,25,07,51,1020.59
2020,07,25,07,52,1020.59
2020,07,25,07,53,1020.59
2020,07,25,07,54,1020.57
2020,07,25,07,55,1020.56
2020,07,25,07,56,1020.56
2020,07,25,07,57,1020.56
2020,07,25,07,58,1020.56
2020,07,25,07,59,1020.58
2020,07,25,08,00,1020.59
2020,07,25,08,01,1020.59
2020,07,25,08,02,1020.61
2020,07,25,08,03,1020.60
2020,07,25,08,04,1020.61
2020,07,25,08,05,1020.62
2020,07,25,08,06,1020.62
2020,07,25,08,07,1020.62
2020,07,25,08,08,1020.60
2020,07,25,08,09,1020.61
2020,07,25,08,10,1020.64
2020,07,25,08,11,1020.68
2020,07,25,08,12,1020.72
2020,07,25,08,13,1020.75
2020,07,25,08,14,1020.76
2020,07,25,08,15,1020.78
2020,07,25,08,16,1020.77
2020,07,25,08,17,1020.78
2020,07,25,08,18,1020.79
2020,07,25,08,19,1020.82
2020,07,25,08,20,1020.83
2020,07,25,08,21,1020.83
2020,07,25,08,22,1020.77
2020,07,25,08,23,1020.75
2020,07,25,08,24,1020.78
2020,07,25,08,25,1020.77
2020,07,25,08,26,1020.76
2020,07,25,08,27,1020.74
2020,07,25,08,28,1020.73
2020,07,25,08,29,1020.73
2020,07,25,08,30,1020.75
2020,07,25,08,31,1020.74
2020,07,25,08,32,1020.73
2020,07,25,08,33,1020.75
2020,07,25,08,34,1020.78
2020,07,25,08,35,1020.79
2020,07,25,08,36,1020.79
2020,07,25,08,37,1020.79
2020,07,25,08,38,1020.79
2020,07,25,08,39,1020.79
2020,07,25,08,40,1020.79
2020,07,25,08,41,1020.79
2020,07,25,08,42,1020.79
2020,07,25,08,43,1020.79
2020,07,25,08,44,1020.82
2020,07,25,08,45,1020.80
2020,07,25,08,46,1020.82
2020,07,25,08,47,1020.83
2020,07,25,08,48,1020.87
2020,07,25,08,49,1020.89
2020,07,25,08,50,1020.87
2020,07,25,08,51,1020.43
2020,07,25,08,52,1019.81
2020,07,25,08,53,1019.92
2020,07,25,08,54,1020.37
2020,07,25,08,55,1020.79
2020,07,25,08,56,1020.90
2020,07,25,08,57,1020.93
2020,07,25,08,58,1020.96
2020,07,25,08,59,1020.96
2020,07,25,09,00,1020.94
2020,07,25,09,01,1020.95
2020,07,25,09,02,1020.96
2020,07,25,09,03,1020.96
2020,07,25,09,04,1020.96
2020,07,25,09,05,1020.96
2020,07,25,09,06,1020.96
2020,07,25,09,07,1020.96
2020,07,25,09,08,1020.96
2020,07,25,09,09,1020.96
2020,07,25,09,10,1020.96
2020,07,25,09,11,1020.96
2020,07,25,09,12,1020.96
2020,07,25,09,13,1020.96
2020,07,25,09,14,1020.96
2020,07,25,09,15,1020.96
2020,07,25,09,16,1020.96
2020,07,25,09,17,1013.10
2020,07,25,09,18,1008.87
2020,07,25,09,19,1008.87
2020,07,25,09,20,1008.87
2020,07,25,09,21,1008.87
2020,07,25,09,22,1008.87
2020,07,25,09,23,1008.87
2020,07,25,09,24,1008.87
2020,07,25,09,25,1008.87
2020,07,25,09,26,1008.87
2020,07,25,09,27,1008.87
2020,07,25,09,28,1008.87
2020,07,25,09,29,1008.87
2020,07,25,09,30,1008.87
2020,07,25,09,31,1015.17
2020,07,25,09,32,1018.56
2020,07,25,09,33,1020.15
2020,07,25,09,34,1021.00
2020,07,25,09,35,1020.34
2020,07,25,09,36,1019.84
2020,07,25,09,37,1019.78
2020,07,25,09,38,1020.64
2020,07,25,09,39,1021.07
2020,07,25,09,40,1021.09
2020,07,25,09,41,1021.08
2020,07,25,09,42,1020.66
2020,07,25,09,43,1020.72
2020,07,25,09,44,1020.97
2020,07,25,09,45,1021.05
2020,07,25,09,46,1021.06
2020,07,25,09,47,1021.06
2020,07,25,09,48,1021.06
2020,07,25,09,49,1021.06
2020,07,25,09,50,1021.09
2020,07,25,09,51,1021.18
2020,07,25,09,52,1021.16
2020,07,25,09,53,1021.17
2020,07,25,09,54,1020.78
2020,07,25,09,55,1020.18
2020,07,25,09,56,1019.98
2020,07,25,09,57,1020.74
2020,07,25,09,58,1021.20
2020,07,25,09,59,1021.25
2020,07,25,10,00,1021.24
2020,07,25,10,01,1021.23
2020,07,25,10,02,1021.23
2020,07,25,10,03,1016.76
2020,07,25,10,04,1014.36
2020,07,25,10,05,1014.36
2020,07,25,10,06,1014.36
2020,07,25,10,07,1014.36
2020,07,25,10,08,1014.36
2020,07,25,10,09,1014.36
2020,07,25,10,10,1014.36
2020,07,25,10,11,1014.36
2020,07,25,10,12,1011.92
2020,07,25,10,13,1010.50
2020,07,25,10,14,1010.50
2020,07,25,10,15,1010.50
2020,07,25,10,16,1010.50
2020,07,25,10,17,1010.50
2020,07,25,10,18,1010.50
2020,07,25,10,19,1010.50
2020,07,25,10,20,1010.62
2020,07,25,10,21,1010.70
2020,07,25,10,22,1010.70
2020,07,25,10,23,1010.70
2020,07,25,10,24,1006.60
2020,07,25,10,25,1004.40
2020,07,25,10,26,1004.40
2020,07,25,10,27,1004.40
2020,07,25,10,28,1004.40
2020,07,25,10,29,1004.40
2020,07,25,10,30,1004.40
2020,07,25,10,31,1004.40
2020,07,25,10,32,1004.40
2020,07,25,10,33,1011.67
2020,07,25,10,34,1015.58
2020,07,25,10,35,1015.58
2020,07,25,10,36,1018.15
2020,07,25,10,37,1019.54
2020,07,25,10,38,1019.54
2020,07,25,10,39,1019.54
2020,07,25,10,40,1019.54
2020,07,25,10,41,1019.54
2020,07,25,10,42,1019.54
2020,07,25,10,43,1019.54
2020,07,25,10,44,1010.85
2020,07,25,10,45,1005.05
2020,07,25,10,46,1005.05
2020,07,25,10,47,1005.05
2020,07,25,10,48,1005.05
2020,07,25,10,49,1005.05
2020,07,25,10,50,1005.05
2020,07,25,10,51,1005.05
2020,07,25,10,52,1005.05
2020,07,25,10,53,1005.05
2020,07,25,10,54,1005.05
2020,07,25,10,55,1005.05
2020,07,25,10,56,1005.05
2020,07,25,10,57,1005.05
2020,07,25,10,58,1005.05
2020,07,25,10,59,1005.05
2020,07,25,11,00,1005.05
2020,07,25,11,01,1005.05
2020,07,25,11,02,1005.05
2020,07,25,11,03,1005.05
2020,07,25,11,04,1005.05
2020,07,25,11,05,1005.05
2020,07,25,11,06,1005.05
2020,07,25,11,07,1005.05
2020,07,25,11,08,1005.05
2020,07,25,11,09,1005.05
2020,07,25,11,10,1005.05
2020,07,25,11,11,1005.05
2020,07,25,11,12,1005.05
2020,07,25,11,13,1005.05
2020,07,25,11,14,1005.05
2020,07,25,11,15,1005.05
2020,07,25,11,16,1002.65
2020,07,25,11,17,1001.36
2020,07,25,11,18,1002.41
2020,07,25,11,19,1002.98
2020,07,25,11,20,1002.98
2020,07,25,11,21,1002.98
2020,07,25,11,22,1002.98
2020,07,25,11,23,1002.98
2020,07,25,11,24,1002.98
2020,07,25,11,25,1002.98
2020,07,25,11,26,1002.98
2020,07,25,11,27,1002.98
2020,07,25,11,28,1002.98
2020,07,25,11,29,995.47
2020,07,25,11,30,991.43
2020,07,25,11,31,991.43
2020,07,25,11,32,991.43
2020,07,25,11,33,991.43
2020,07,25,11,34,991.43
2020,07,25,11,35,991.43
2020,07,25,11,36,991.43
2020,07,25,11,37,991.43
2020,07,25,11,38,991.43
2020,07,25,11,39,991.43
2020,07,25,11,40,991.43
2020,07,25,11,41,991.43
2020,07,25,11,42,991.43
2020,07,25,11,43,991.43
2020,07,25,11,44,991.43
2020,07,25,11,45,991.43
2020,07,25,11,46,991.43
2020,07,25,11,47,991.43
2020,07,25,11,48,991.43
2020,07,25,11,49,991.43
2020,07,25,11,50,991.43
2020,07,25,11,51,991.43
2020,07,25,11,52,991.43
2020,07,25,11,53,991.43
2020,07,25,11,54,991.43
2020,07,25,11,55,991.43
2020,07,25,11,56,991.43
2020,07,25,11,57,991.43
2020,07,25,11,58,991.43
2020,07,25,11,59,991.43
2020,07,25,12,00,991.43
2020,07,25,12,01,991.43
2020,07,25,12,02,991.43
2020,07,25,12,03,991.43
2020,07,25,12,04,991.43
2020,07,25,12,05,991.43
2020,07,25,12,06,991.43
2020,07,25,12,07,991.43
2020,07,25,12,08,991.43
2020,07,25,12,09,991.43
2020,07,25,12,10,991.43
2020,07,25,12,11,991.43
2020,07,25,12,12,991.43
2020,07,25,12,13,991.43
2020,07,25,12,14,991.43
2020,07,25,12,15,991.43
2020,07,25,12,16,991.43
2020,07,25,12,17,991.43
2020,07,25,12,18,991.43
2020,07,25,12,19,991.43
2020,07,25,12,20,991.43
2020,07,25,12,21,991.43
2020,07,25,12,22,991.43
2020,07,25,12,23,991.43
2020,07,25,12,24,991.43
2020,07,25,12,25,991.43
2020,07,25,12,26,991.43
2020,07,25,12,27,991.43
2020,07,25,12,28,991.43
2020,07,25,12,29,991.43
2020,07,25,12,30,991.43
2020,07,25,12,31,991.43
2020,07,25,12,32,991.43
2020,07,25,12,33,991.43
2020,07,25,12,34,991.43
2020,07,25,12,35,991.43
2020,07,25,12,36,991.43
2020,07,25,12,37,991.43
2020,07,25,12,38,991.43
2020,07,25,12,39,991.43
2020,07,25,12,40,991.43
2020,07,25,12,41,991.43
2020,07,25,12,42,991.43
2020,07,25,12,43,991.43
2020,07,25,12,44,991.43
2020,07,25,12,45,991.43
2020,07,25,12,46,991.43
2020,07,25,12,47,991.43
2020,07,25,12,48,991.43
2020,07,25,12,49,991.43
2020,07,25,12,50,991.43
2020,07,25,12,51,991.43
2020,07,25,12,52,991.43
2020,07,25,12,53,991.43
2020,07,25,12,54,991.43
2020,07,25,12,55,991.43
2020,07,25,12,56,991.43
2020,07,25,12,57,991.43
2020,07,25,12,58,991.43
2020,07,25,12,59,991.43
2020,07,25,13,00,991.43
2020,07,25,13,01,991.43
2020,07,25,13,02,991.43
2020,07,25,13,03,991.43
2020,07,25,13,04,991.43
2020,07,25,13,05,991.43
2020,07,25,13,06,991.43
2020,07,25,13,07,991.43
2020,07,25,13,08,991.43
2020,07,25,13,09,991.43
2020,07,25,13,10,991.43
2020,07,25,13,11,991.43
2020,07,25,13,12,991.43
2020,07,25,13,13,991.43
2020,07,25,13,14,991.43
2020,07,25,13,15,991.43
2020,07,25,13,16,991.43
2020,07,25,13,17,991.43
2020,07,25,13,18,991.43
2020,07,25,17,12,920.56
2020,07,25,17,13,920.56
2020,07,25,17,14,920.56
2020,07,25,17,15,920.56
2020,07,25,17,16,920.56
2020,07,25,17,17,915.86
2020,07,25,17,18,912.02
2020,07,25,17,19,912.02
2020,07,25,17,20,912.02
2020,07,25,17,21,912.02
2020,07,25,17,22,912.02
2020,07,25,17,23,912.02
2020,07,25,17,24,912.02
2020,07,25,17,25,912.02
2020,07,25,17,26,912.02
2020,07,25,17,27,912.02
2020,07,25,17,28,912.02
2020,07,25,17,29,912.02
2020,07,25,17,30,912.02
2020,07,25,17,31,912.02
2020,07,25,17,32,912.02
2020,07,25,17,33,912.02
2020,07,25,17,34,912.02
2020,07,25,17,35,912.02
2020,07,25,17,36,912.02
2020,07,25,17,37,912.02
2020,07,25,17,38,912.02
2020,07,25,17,39,912.02
2020,07,25,17,40,912.02
2020,07,25,17,41,912.02
2020,07,25,17,42,913.07
2020,07,25,17,43,914.02
2020,07,25,17,44,914.02
2020,07,25,17,45,914.02
2020,07,25,17,46,914.02
2020,07,25,17,47,914.02
2020,07,25,17,48,914.02
2020,07,25,17,49,914.02
2020,07,25,17,50,914.02
2020,07,25,17,51,914.02
2020,07,25,17,52,914.02
2020,07,25,17,53,914.02
2020,07,25,17,54,914.02
2020,07,25,17,55,914.02
2020,07,25,17,56,914.02
2020,07,25,17,57,914.02
2020,07,25,17,58,914.02
2020,07,25,17,59,914.02
2020,07,25,18,00,914.02
2020,07,25,18,01,914.02
2020,07,25,18,02,919.33
2020,07,25,18,03,923.67
2020,07,25,18,04,923.67
2020,07,25,18,05,923.67
2020,07,25,18,06,923.67
2020,07,25,18,07,923.67
2020,07,25,18,08,923.67
2020,07,25,18,09,923.67
2020,07,25,18,10,923.67
2020,07,25,18,11,923.67
2020,07,25,18,12,923.67
2020,07,25,18,13,923.67
2020,07,25,18,14,923.67
2020,07,25,18,15,923.67
2020,07,25,18,16,923.67
2020,07,25,18,17,923.67
2020,07,25,18,18,923.67
2020,07,25,18,19,923.67
2020,07,25,18,20,923.67
2020,07,25,18,21,923.67
2020,07,25,18,22,923.67
2020,07,25,18,23,923.67
2020,07,25,18,24,923.67
2020,07,25,18,25,928.59
2020,07,25,18,26,932.61
2020,07,25,18,27,932.61
2020,07,25,18,28,931.18
2020,07,25,18,29,929.90
2020,07,25,18,30,929.90
2020,07,25,18,31,929.90
2020,07,25,18,32,929.90
2020,07,25,18,33,929.90
2020,07,25,18,34,929.90
2020,07,25,18,35,929.90
2020,07,25,18,36,929.90
2020,07,25,18,37,929.90
2020,07,25,18,38,929.90
2020,07,25,18,39,929.90
2020,07,25,18,40,929.90
2020,07,25,18,41,929.90
2020,07,25,18,42,929.90
2020,07,25,18,43,929.90
2020,07,25,18,44,929.90
2020,07,25,18,45,929.90
2020,07,25,18,46,952.38
2020,07,25,18,47,972.61
2020,07,25,18,48,972.61
2020,07,25,18,49,972.61
2020,07,25,18,50,972.61
2020,07,25,18,51,972.61
2020,07,25,18,52,972.61
2020,07,25,18,53,972.61
2020,07,25,18,54,972.61
2020,07,25,18,55,972.61
2020,07,25,18,56,972.61
2020,07,25,18,57,972.61
2020,07,25,18,58,968.64
2020,07,25,18,59,965.39
2020,07,25,19,00,965.39
2020,07,25,19,01,965.39
2020,07,25,19,02,965.39
2020,07,25,19,03,965.39
2020,07,25,19,04,965.39
2020,07,25,19,05,965.39
2020,07,25,19,06,965.39
2020,07,25,19,07,965.39
2020,07,25,19,08,965.39
2020,07,25,19,09,965.39
2020,07,25,19,10,965.39
2020,07,25,19,11,965.39
2020,07,25,19,12,965.39
2020,07,25,19,13,965.39
2020,07,25,19,14,965.39
2020,07,25,19,15,965.39
2020,07,25,19,16,965.39
2020,07,25,19,17,965.39
2020,07,25,19,18,965.39
2020,07,25,19,19,965.39
2020,07,25,19,20,965.39
2020,07,25,19,21,965.39
2020,07,25,19,22,974.54
2020,07,25,19,23,982.02
2020,07,25,19,24,982.02
2020,07,25,19,25,982.02
2020,07,25,19,26,982.02
2020,07,25,19,27,982.02
2020,07,25,19,28,982.02
2020,07,25,19,29,982.02
2020,07,25,19,30,982.02
2020,07,25,19,31,986.34
2020,07,25,19,32,990.65
2020,07,25,19,33,990.65
2020,07,25,19,34,990.65
2020,07,25,19,35,990.65
2020,07,25,19,36,990.65
2020,07,25,19,37,990.65
2020,07,25,19,38,990.65
2020,07,25,19,39,990.65
2020,07,25,19,40,990.65
2020,07,25,19,41,990.65
2020,07,25,19,42,990.65
2020,07,25,19,43,990.65
2020,07,25,19,44,990.65
2020,07,25,19,45,990.65
2020,07,25,19,46,990.65
2020,07,25,19,47,990.65
2020,07,25,19,48,990.65
2020,07,25,19,49,990.65
2020,07,25,19,50,990.65
2020,07,25,19,51,983.02
2020,07,25,19,52,976.77
2020,07,25,19,53,976.77
2020,07,25,19,54,976.77
2020,07,25,19,55,976.77
2020,07,25,19,56,976.77
2020,07,25,19,57,976.77
2020,07,25,19,58,976.77
2020,07,25,19,59,976.77
2020,07,25,20,00,976.77
2020,07,25,20,01,976.77
2020,07,25,20,02,976.77